Airfield :
LOGIN :

Register | Disclaimer

   EN    FR    IT 

 










Legend :    VFR   Marginal VFR   IFR   Intensive IFR   Very Intensive IFR
Visi :
Ceiling :
>= 8 km
>= 3000ft
5 to 8 km
1000 to 3000 ft
1500m to 5 km
500 to 1000 ft
800 to 1500m
200 to 500 ft
< 800m
< 200 ft
Symbols :   Thunderstorms  Fog  Heavy snow  Heavy precipitations  Wind > 20 kt
SIGMETs :     Misc.  Thunderstorms  Icing  Turbulence  Mountain Waves  Volcanic Ashes






- Airport Elevation : 290 ft
- IATA code : LAI


LFRO - Lannion

CURRENT METAR :
  • 271430Z AUTO 32010KT 290V350 9999 SCT028 BKN037 09/03 Q1012

EXPIRED METARs :
  • 271400Z AUTO 31015KT 9999 BKN027 BKN032 09/04 Q1012
  • 271330Z AUTO 33014KT 9999 SCT033 08/02 Q1011
  • 271300Z AUTO 32015KT 290V360 9999 BKN031 BKN037 08/03 Q1010
  • 271230Z AUTO 32013G25KT 290V350 9999 BKN026 OVC033 08/04 Q1010
  • 271200Z AUTO 33015KT 290V360 9999 SCT024 BKN031 08/04 Q1009

Expired Forecast.



MET'MAP, your aeronautical weather chart ! - Copyright ORBIFLY December 2007 - Disclaimer

ORBIFLY MET'MAP TEAM :

Programming & Development : Alexandra Zaïnal
Concept & original design : Baudouin d'Aumeries
Assistance for programming : Marc-Olivier Méhu
Technical & hardware support : Manuel Goepfert

Contact : metmap@orbifly.com




SOURCES & CREDITS :

   NOAA